Weather in Gotoputovo

Russia / Tyumen Oblast     56°46′22″N   70°09′49″E
temp.,
°C
wind,
m/s
gust,
m/s
humid.,
%
clouds,
%
prec.,
mm/h
press.,
hPa
HPBL,
m
17 april, sat
sat1723:00+1ne47680 0.0 1027312
02:00−1ene25772 0.0 1028286
05:00−2e11751 0.0 102852
08:00+1ssw23573 0.0 1028504
11:00+5wsw45435 0.0 10261236
14:00+7wsw683417 0.0 10231766
17:00+8w61040100 0.0 10202073
20:00+6wsw51153100 0.0 1018308
18 april, sun
sun1823:00+4wsw4106793 0.0 1016190
02:00+3wsw3573100 0.0 1014111
05:00+3wsw51170100 0.0 1011327
08:00+5w71265100 0.0 1008943
11:00+5nw81282100 0.3 10081139
14:00−1n111360100 1.1 10151508
17:00−3n9135298 1.1 10211641
20:00−5n712535 0.0 10251501
19 april, mon
mon1923:00−7n6105470 0.0 10281333
02:00−8n69505 0.0 10301202
05:00−9n595277 0.0 10321233
08:00−7n6842100 0.0 10331491
11:00−4n6733100 0.0 10332006
14:00−2n5730100 0.0 10322261
17:00−1n5730100 0.0 10332131
20:00−4nne35455 0.0 1034108
20 april, tue
tue2023:00−5n23505 0.0 103470
02:00−5nnw22535 0.0 103427
05:00−6w23555 0.0 103467
08:00−2w57375 0.0 10331013
11:00+2w682971 0.0 10301329
14:00+4w81133100 0.0 10271649
17:00+5w71342100 0.0 10251586
20:00+4wnw61354100 0.0 1024398
21 april, wed
wed2123:00+2wnw71665100 0.0 1023409
02:00+1nw6137882 0.0 1023465
05:00+1nnw5118796 0.0 1025635
08:00+2n610625 0.0 10271003
11:00+5n68475 0.0 10291198
14:00+7nne68395 0.0 10301530
17:00+6nne67415 0.0 10331619
20:00+3ne36605 0.0 1035137